This is the latest recevied weather packets stored in our database for station/object G1SCQ. If no packets are shown the sender has not sent any weather packets the latest 10 day(s).
| Time | Temp. | Humidity | Pressure | Rain* | Wind** | Luminosity | Snow |
|---|---|---|---|---|---|---|---|
| 1788143224 | 57° F | 98% | 752.4 mmHg | 0 in | - | 0 W/m² | - |
| 1788142684 | 58° F | 98% | 752.5 mmHg | 0 in | - | 0 W/m² | - |
| 1788142144 | 58° F | 98% | 752.5 mmHg | 0 in | - | 0 W/m² | - |
| 1788141603 | 57° F | 98% | 752.5 mmHg | 0 in | - | 0 W/m² | - |
| 1788141243 | 57° F | 97% | 752.5 mmHg | 0 in | - | 0 W/m² | - |
| 1788140703 | 57° F | 97% | 752.4 mmHg | 0 in | - | 0 W/m² | - |
| 1788140163 | 58° F | 98% | 752.6 mmHg | 0 in | - | 0 W/m² | - |
| 1788139623 | 58° F | 97% | 752.6 mmHg | 0 in | - | 0 W/m² | - |
| 1788139083 | 58° F | 97% | 752.6 mmHg | 0.01 in | - | 0 W/m² | - |
| 1788138543 | 58° F | 97% | 752.8 mmHg | 0.17 in | - | 0 W/m² | - |
| 1788138003 | 59° F | 97% | 752.8 mmHg | 0.17 in | - | 0 W/m² | - |
| 1788137643 | 59° F | 97% | 752.7 mmHg | 0.17 in | - | 0 W/m² | - |
| 1788137103 | 59° F | 97% | 752.6 mmHg | 0.17 in | - | 0 W/m² | - |
| 1788136564 | 59° F | 97% | 752.9 mmHg | 0.17 in | - | 0 W/m² | - |
| 1788136023 | 60° F | 96% | 752.8 mmHg | 0.17 in | - | 0 W/m² | - |
| 1788135483 | 60° F | 94% | 752.8 mmHg | 0.16 in | - | 0 W/m² | - |
| 1788134943 | 61° F | 89% | 752.7 mmHg | 0 in | - | 0 W/m² | - |
| 1788134403 | 61° F | 89% | 752.8 mmHg | 0 in | - | 0 W/m² | - |
| 1788134043 | 62° F | 88% | 752.7 mmHg | 0 in | - | 0 W/m² | - |
| 1788133503 | 62° F | 85% | 752.6 mmHg | 0 in | - | 0 W/m² | - |
| 1788132963 | 62° F | 84% | 752.8 mmHg | 0 in | - | 0 W/m² | - |
| 1788132423 | 62° F | 84% | 752.8 mmHg | 0 in | - | 0 W/m² | - |
| 1788131883 | 62° F | 84% | 752.8 mmHg | 0 in | - | 0 W/m² | - |
| 1788131343 | 63° F | 83% | 753.1 mmHg | 0 in | - | 0 W/m² | - |
| 1788130803 | 63° F | 83% | 752.9 mmHg | 0 in | - | 0 W/m² | - |
* Rain latest hour (hover to see other rain measurements)
** Current wind speed in m/s (hover to see current wind gust speed)